Volver al catálogo

ONEWEB-0068

ActivoComunicacionesPO
NORAD 45446·PAYLOAD·🇬🇧 United Kingdom

Lanzado Mar 21, 2020 desde Baikonur Cosmodrome

Loading…

Próximos Pases (próximas 24 horas)

TLE

ActualizadoSource: CelesTrak SupGP

Época: Sep 14, 2026, 17:46 UTC

1 45446C 20020Y   26257.74076806  .00002118  00000+0  59830-2 0  2572
2 45446  87.8982   3.2644 0002002 100.5547 330.4105 13.11419259    15

Sigue ONEWEB-0068 en tiempo real con AllMySat

Download on the App Store